Weather History for Jefferson City, MO

Change the Weather History Date:

Sunday, November 4, 2012

  Actual Average Record
Temperature  
Mean Temperature 42 °F -  
Max Temperature 54 °F 57 °F 81 °F (1978)
Min Temperature 30 °F 35 °F 12 °F (1991)
Degree Days  
Heating Degree Days 24    
Moisture  
Dew Point 31 °F    
Average Humidity 77    
Maximum Humidity 96    
Minimum Humidity 43    
Precipitation  
Precipitation 0.00 in - - ()
Sea Level Pressure  
Sea Level Pressure 30.20 in    
Wind  
Wind Speed 1 mph (ESE)    
Max Wind Speed 7 mph    
Max Gust Speed -    
Visibility 5 miles    
Events Fog , Snow    
Averages and records for this station are not official NWS values.
T = Trace of Precipitation, MM = Missing Value Source: NWS Daily Summary

Daily Weather History Graph

Daily Weather History Graph

Search for Another Location

Airport:

Trip Planner

Search our weather history database for the weather conditions in past years. The results will help you decide how hot, cold, wet, or windy it might be!

Date:

Astronomy

Nov. 04, 2012 Rise Set
Actual Time 6:39 AM CST 5:04 PM CST
Civil Twilight 6:11 AM CST 5:32 PM CST
Nautical Twilight 5:39 AM CST 6:03 PM CST
Astronomical Twilight 5:08 AM CST 6:35 PM CST
Moon 9:43 PM CST (11/4) 11:22 AM CST (11/4)
Length of Visible Light 11h 21m
Length of Day
10h 25m
Waning Gibbous, 72% of the Moon is Illuminated
Nov 4
Waning Gibbous
Nov 6
Last Quarter
Nov 13
New
Nov 20
First Quarter
Nov 28
Full

Hourly Weather History & Observations

Time (CST) Temp. Windchill Dew Point Humidity Pressure Visibility Wind Dir Wind Speed Gust Speed Precip Events Conditions
12:53 AM 35.1 °F - 32.0 °F 89% 30.19 in 4.0 mi Calm Calm - N/A   Clear
1:44 AM 33.8 °F - 30.2 °F 87% 30.23 in 5.0 mi Calm Calm - N/A   Partly Cloudy
1:53 AM 33.1 °F - 30.0 °F 89% 30.22 in 4.0 mi Calm Calm - N/A   Clear
2:01 AM 33.8 °F - 28.4 °F 81% 30.23 in 5.0 mi Calm Calm - N/A   Partly Cloudy
2:53 AM 32.0 °F 28.7 °F 28.9 °F 88% 30.22 in 4.0 mi NW 3.5 mph - N/A   Partly Cloudy
2:59 AM 30.2 °F - 28.4 °F 93% 30.23 in 1.8 mi Calm Calm - N/A   Partly Cloudy
3:04 AM 30.2 °F 26.7 °F 28.4 °F 93% 30.23 in 0.8 mi West 3.5 mph - N/A   Mist
3:21 AM 30.2 °F - 28.4 °F 93% 30.23 in 0.2 mi Calm Calm - N/A Fog Light Freezing Fog
3:31 AM 30.2 °F - 28.4 °F 93% 30.22 in 0.5 mi Calm Calm - N/A Fog Light Freezing Fog
3:44 AM 30.2 °F - 28.4 °F 93% 30.22 in 0.2 mi Calm Calm - N/A Fog Light Freezing Fog
3:51 AM 30.2 °F - 28.4 °F 93% 30.22 in 0.5 mi Calm Calm - N/A Fog Light Freezing Fog
3:53 AM 30.0 °F - 28.0 °F 92% 30.20 in 0.5 mi Calm Calm - N/A Fog Light Freezing Fog
4:03 AM 30.2 °F - 28.4 °F 93% 30.22 in 0.2 mi Calm Calm - N/A Fog Light Freezing Fog
4:53 AM 30.0 °F - 28.0 °F 92% 30.20 in 0.2 mi Calm Calm - N/A Fog Light Freezing Fog
5:53 AM 30.9 °F - 28.9 °F 92% 30.22 in 0.2 mi Calm Calm - N/A Fog Light Freezing Fog
6:53 AM 30.0 °F - 28.0 °F 92% 30.24 in 0.2 mi Calm Calm - N/A Fog Light Freezing Fog
7:53 AM 32.0 °F - 30.0 °F 92% 30.25 in 0.2 mi Calm Calm - 0.00 in Fog , Snow Light Snow
8:22 AM 33.8 °F - 32.0 °F 93% 30.27 in 1.0 mi Calm Calm - 0.00 in   Overcast
8:53 AM 35.1 °F - 34.0 °F 96% 30.25 in 1.8 mi Calm Calm - 0.00 in   Overcast
9:01 AM 35.6 °F - 33.8 °F 93% 30.26 in 2.0 mi Calm Calm - N/A   Overcast
9:42 AM 37.4 °F - 35.6 °F 93% 30.27 in 3.0 mi Calm Calm - N/A   Mostly Cloudy
9:53 AM 39.0 °F - 36.0 °F 89% 30.25 in 4.0 mi Calm Calm - N/A   Mostly Cloudy
10:07 AM 39.2 °F 37.0 °F 37.4 °F 93% 30.26 in 4.0 mi Variable 3.5 mph - N/A   Partly Cloudy
10:53 AM 46.0 °F - 36.0 °F 68% 30.24 in 10.0 mi Calm Calm - N/A   Partly Cloudy
11:53 AM 48.9 °F - 35.1 °F 59% 30.20 in 10.0 mi Variable 3.5 mph - N/A   Clear
12:53 PM 51.1 °F - 33.1 °F 50% 30.19 in 10.0 mi SE 4.6 mph - N/A   Clear
1:53 PM 53.1 °F - 32.0 °F 45% 30.16 in 10.0 mi Variable 5.8 mph - N/A   Clear
2:53 PM 53.1 °F - 32.0 °F 45% 30.15 in 10.0 mi ESE 4.6 mph - N/A   Partly Cloudy
3:53 PM 53.1 °F - 30.9 °F 43% 30.13 in 10.0 mi ESE 4.6 mph - N/A   Clear
4:53 PM 51.1 °F - 30.9 °F 46% 30.12 in 10.0 mi ESE 4.6 mph - N/A   Clear
5:53 PM 50.0 °F - 32.0 °F 50% 30.13 in 10.0 mi Calm Calm - N/A   Partly Cloudy
6:53 PM 46.9 °F - 33.1 °F 59% 30.13 in 10.0 mi ESE 4.6 mph - N/A   Mostly Cloudy
7:53 PM 48.0 °F - 33.1 °F 56% 30.12 in 10.0 mi ESE 5.8 mph - N/A   Overcast
8:53 PM 48.0 °F - 32.0 °F 54% 30.10 in 10.0 mi East 6.9 mph - N/A   Mostly Cloudy
9:53 PM 48.0 °F - 32.0 °F 54% 30.11 in 10.0 mi East 6.9 mph - N/A   Mostly Cloudy
10:53 PM 46.9 °F - 33.1 °F 59% 30.12 in 10.0 mi Variable 4.6 mph - N/A   Mostly Cloudy